N69AP KOFP-KGAI

Flight info

Callsign N69AP
Flight time N/A
Altitude 4000
Route CSN MRB T358 TWRK T356 WOOLY
Aircraft P28A/L-DGV/C

Departure

Time 2026-05-06 21:17
Airport Hanover County Municipal Airport (KOFP)

Arrival

Time N/A
Airport Montgomery County Airpark (KGAI)
Time Latitude Longitude Altitude Speed Heading
2026-05-06 21:17 37.76467 -77.41759 3110 ft 109 kts 328°
2026-05-06 21:17 37.77147 -77.42115 3362 ft 102 kts 322°
2026-05-06 21:17 37.77789 -77.42484 3519 ft 100 kts 314°
2026-05-06 21:18 37.78393 -77.42966 3664 ft 103 kts 312°
2026-05-06 21:18 37.78973 -77.43436 3911 ft 99 kts 317°
2026-05-06 21:18 37.79550 -77.43901 4031 ft 102 kts 311°
2026-05-06 21:18 37.80198 -77.44387 3993 ft 117 kts 323°
2026-05-06 21:19 37.80975 -77.44795 3979 ft 123 kts 325°
2026-05-06 21:19 37.81776 -77.45204 4009 ft 125 kts 326°
2026-05-06 21:19 37.82592 -77.45620 3996 ft 129 kts 326°
2026-05-06 21:19 37.83453 -77.46044 3994 ft 132 kts 328°
2026-05-06 21:20 37.84296 -77.46449 4017 ft 130 kts 327°
2026-05-06 21:20 37.85120 -77.46908 4009 ft 127 kts 325°
2026-05-06 21:20 37.85917 -77.47361 3976 ft 129 kts 331°
2026-05-06 21:20 37.86798 -77.47612 4006 ft 126 kts 333°
2026-05-06 21:21 37.87611 -77.47973 3995 ft 125 kts 325°
2026-05-06 21:21 37.88426 -77.48400 3987 ft 126 kts 327°
2026-05-06 21:21 37.89236 -77.48811 4025 ft 127 kts 327°
2026-05-06 21:21 37.90068 -77.49234 4001 ft 129 kts 326°
2026-05-06 21:22 37.90897 -77.49645 4032 ft 126 kts 326°
2026-05-06 21:22 37.91694 -77.50093 4049 ft 125 kts 323°
2026-05-06 21:22 37.92488 -77.50564 4019 ft 128 kts 323°
2026-05-06 21:22 37.93326 -77.50996 4009 ft 132 kts 329°
2026-05-06 21:23 37.94194 -77.51396 3983 ft 132 kts 328°
2026-05-06 21:23 37.95028 -77.51812 4031 ft 128 kts 327°
2026-05-06 21:23 37.95864 -77.52224 3998 ft 128 kts 325°
2026-05-06 21:23 37.96678 -77.52645 4036 ft 127 kts 328°
2026-05-06 21:24 37.97516 -77.53050 3982 ft 130 kts 327°
2026-05-06 21:24 37.98350 -77.53482 3994 ft 127 kts 326°
2026-05-06 21:24 37.99167 -77.53861 4098 ft 124 kts 329°
2026-05-06 21:24 37.99997 -77.54241 4035 ft 130 kts 328°
2026-05-06 21:25 38.00835 -77.54664 4035 ft 128 kts 327°
2026-05-06 21:25 38.01658 -77.55092 4039 ft 128 kts 328°
2026-05-06 21:25 38.02505 -77.55486 4016 ft 131 kts 329°
2026-05-06 21:25 38.03344 -77.55888 4052 ft 127 kts 328°
2026-05-06 21:26 38.04176 -77.56303 4022 ft 130 kts 327°
2026-05-06 21:26 38.05007 -77.56737 4038 ft 128 kts 327°
2026-05-06 21:26 38.05815 -77.57145 4063 ft 127 kts 327°
2026-05-06 21:26 38.06637 -77.57574 4042 ft 129 kts 326°
2026-05-06 21:27 38.07471 -77.58019 4037 ft 130 kts 328°
2026-05-06 21:27 38.08311 -77.58432 4039 ft 131 kts 328°
2026-05-06 21:27 38.09159 -77.58854 4024 ft 131 kts 327°
2026-05-06 21:27 38.09998 -77.59281 4037 ft 128 kts 327°
2026-05-06 21:28 38.10816 -77.59710 4035 ft 128 kts 326°
2026-05-06 21:28 38.11648 -77.60149 4030 ft 129 kts 328°
2026-05-06 21:28 38.12490 -77.60543 4036 ft 130 kts 329°
2026-05-06 21:28 38.13336 -77.60962 4012 ft 131 kts 328°
2026-05-06 21:29 38.14177 -77.61384 4036 ft 128 kts 327°
2026-05-06 21:29 38.14997 -77.61821 4038 ft 128 kts 327°
2026-05-06 21:29 38.15814 -77.62257 4019 ft 129 kts 326°
2026-05-06 21:29 38.16658 -77.62658 4032 ft 129 kts 330°
2026-05-06 21:30 38.17505 -77.63031 4029 ft 130 kts 329°
2026-05-06 21:30 38.18352 -77.63439 4008 ft 129 kts 328°
2026-05-06 21:30 38.19178 -77.63850 4044 ft 127 kts 327°
2026-05-06 21:30 38.20009 -77.64269 4015 ft 130 kts 327°
2026-05-06 21:31 38.20843 -77.64710 4029 ft 127 kts 326°
2026-05-06 21:31 38.21664 -77.65140 4027 ft 128 kts 328°
2026-05-06 21:31 38.22492 -77.65550 4041 ft 127 kts 328°
2026-05-06 21:31 38.23321 -77.65955 4008 ft 129 kts 328°
2026-05-06 21:32 38.24160 -77.66366 4059 ft 125 kts 327°
2026-05-06 21:32 38.25802 -77.67214 4069 ft 127 kts 327°
2026-05-06 21:32 38.26621 -77.67633 4034 ft 129 kts 326°
2026-05-06 21:33 38.27455 -77.68044 4029 ft 130 kts 329°
2026-05-06 21:33 38.28295 -77.68449 4034 ft 130 kts 329°
2026-05-06 21:33 38.29142 -77.68863 4017 ft 130 kts 328°
2026-05-06 21:33 38.29989 -77.69281 4024 ft 131 kts 330°
2026-05-06 21:34 38.30828 -77.69680 4066 ft 127 kts 327°
2026-05-06 21:34 38.31658 -77.70105 4022 ft 129 kts 327°
2026-05-06 21:34 38.32482 -77.70531 4036 ft 127 kts 326°
2026-05-06 21:34 38.33289 -77.70971 4073 ft 125 kts 325°
2026-05-06 21:35 38.34109 -77.71400 4053 ft 129 kts 329°
2026-05-06 21:35 38.34949 -77.71803 4037 ft 127 kts 328°
2026-05-06 21:35 38.35746 -77.72223 4016 ft 123 kts 322°
2026-05-06 21:35 38.36530 -77.72653 4033 ft 125 kts 329°
2026-05-06 21:36 38.37358 -77.72893 4160 ft 118 kts 337°
2026-05-06 21:36 38.38199 -77.73102 4078 ft 127 kts 334°
2026-05-06 21:36 38.38998 -77.73535 4032 ft 125 kts 325°
2026-05-06 21:36 38.39774 -77.74007 4037 ft 123 kts 324°
2026-05-06 21:37 38.40580 -77.74416 4012 ft 123 kts 325°
2026-05-06 21:37 38.41354 -77.74861 4018 ft 119 kts 322°
2026-05-06 21:37 38.42002 -77.75413 4020 ft 115 kts 313°
2026-05-06 21:37 38.42761 -77.75872 4024 ft 121 kts 327°
2026-05-06 21:38 38.43547 -77.76260 4024 ft 122 kts 328°
2026-05-06 21:38 38.44362 -77.76616 4025 ft 125 kts 329°
2026-05-06 21:38 38.45183 -77.76983 4006 ft 125 kts 327°
2026-05-06 21:38 38.45983 -77.77384 4017 ft 122 kts 327°
2026-05-06 21:39 38.46781 -77.77776 4010 ft 123 kts 327°
2026-05-06 21:39 38.47571 -77.78169 4035 ft 122 kts 327°
2026-05-06 21:39 38.48370 -77.78566 4049 ft 125 kts 327°
2026-05-06 21:39 38.49193 -77.78970 4019 ft 126 kts 328°
2026-05-06 21:40 38.50000 -77.79373 4016 ft 125 kts 328°
2026-05-06 21:40 38.50797 -77.79779 4063 ft 120 kts 327°
2026-05-06 21:40 38.51580 -77.80182 4027 ft 124 kts 327°
2026-05-06 21:40 38.52372 -77.80590 4061 ft 123 kts 327°
2026-05-06 21:41 38.53187 -77.81008 4035 ft 128 kts 327°
2026-05-06 21:41 38.54015 -77.81430 4028 ft 129 kts 329°
2026-05-06 21:41 38.54853 -77.81837 4033 ft 128 kts 328°
2026-05-06 21:41 38.55670 -77.82250 4010 ft 126 kts 328°
2026-05-06 21:42 38.56474 -77.82660 4000 ft 123 kts 326°
2026-05-06 21:42 38.57261 -77.83068 4016 ft 120 kts 328°
2026-05-06 21:42 38.58036 -77.83468 4020 ft 120 kts 327°
2026-05-06 21:42 38.58809 -77.83867 4034 ft 122 kts 328°
2026-05-06 21:43 38.59603 -77.84256 4025 ft 123 kts 329°
2026-05-06 21:43 38.60408 -77.84665 4013 ft 124 kts 328°
2026-05-06 21:43 38.61209 -77.85069 4033 ft 125 kts 328°
2026-05-06 21:43 38.62021 -77.85471 3987 ft 126 kts 329°
2026-05-06 21:44 38.62801 -77.85882 4114 ft 116 kts 326°
2026-05-06 21:44 38.63578 -77.86312 3959 ft 126 kts 326°
2026-05-06 21:44 38.64380 -77.86690 4015 ft 122 kts 337°
2026-05-06 21:44 38.65251 -77.86723 4014 ft 132 kts 355°
2026-05-06 21:45 38.66163 -77.86575 4037 ft 133 kts 356°
2026-05-06 21:45 38.67100 -77.86506 4007 ft 135 kts 351°
2026-05-06 21:45 38.68021 -77.86497 4033 ft 131 kts 349°
2026-05-06 21:45 38.68946 -77.86475 4018 ft 133 kts 352°
2026-05-06 21:46 38.69867 -77.86336 4105 ft 133 kts 360°
2026-05-06 21:46 38.70789 -77.86251 4065 ft 135 kts 346°
2026-05-06 21:46 38.71667 -77.86474 4180 ft 122 kts 330°
2026-05-06 21:46 38.72435 -77.86902 4161 ft 121 kts 314°
2026-05-06 21:47 38.72990 -77.87699 4102 ft 119 kts 296°
2026-05-06 21:47 38.73401 -77.88568 4240 ft 110 kts 291°
2026-05-06 21:47 38.73729 -77.89435 4350 ft 106 kts 286°
2026-05-06 21:47 38.74003 -77.90310 4348 ft 109 kts 284°
2026-05-06 21:48 38.74379 -77.91198 4271 ft 121 kts 304°
2026-05-06 21:48 38.75030 -77.91900 4244 ft 125 kts 310°
2026-05-06 21:48 38.75555 -77.92791 4057 ft 129 kts 293°
2026-05-06 21:48 38.75968 -77.93824 3984 ft 123 kts 290°
2026-05-06 21:49 38.76302 -77.94793 3997 ft 121 kts 292°
2026-05-06 21:49 38.76760 -77.95744 3911 ft 120 kts 294°
2026-05-06 21:49 38.77152 -77.96627 4059 ft 108 kts 294°
2026-05-06 21:49 38.77591 -77.97431 4050 ft 113 kts 298°
2026-05-06 21:50 38.77974 -77.98294 4061 ft 111 kts 289°
2026-05-06 21:50 38.78348 -77.99271 3864 ft 118 kts 288°
2026-05-06 21:50 38.78545 -77.99875 3987 ft 106 kts 281°
2026-05-06 21:50 38.78647 -78.00792 4010 ft 103 kts 266°
2026-05-06 21:51 38.78614 -78.01696 4078 ft 100 kts 265°
2026-05-06 21:51 38.78775 -78.02578 4074 ft 106 kts 289°
2026-05-06 21:51 38.79020 -78.03452 4120 ft 102 kts 274°
2026-05-06 21:51 38.79066 -78.04382 4068 ft 108 kts 269°
2026-05-06 21:52 38.79181 -78.05263 4275 ft 95 kts 284°
2026-05-06 21:52 38.79532 -78.06066 4162 ft 107 kts 282°
2026-05-06 21:52 38.79552 -78.06974 4125 ft 106 kts 260°
2026-05-06 21:52 38.79554 -78.07856 4316 ft 96 kts 280°
2026-05-06 21:53 38.79945 -78.08604 4418 ft 107 kts 309°
2026-05-06 21:53 38.80641 -78.08992 4598 ft 119 kts 348°
2026-05-06 21:53 38.81475 -78.08886 4751 ft 117 kts
2026-05-06 21:53 38.82254 -78.08452 4818 ft 129 kts 16°
2026-05-06 21:54 38.83090 -78.08035 4900 ft 128 kts 14°
2026-05-06 21:54 38.83916 -78.07564 4981 ft 134 kts 20°
2026-05-06 21:54 38.84795 -78.07088 4966 ft 138 kts 12°
2026-05-06 21:54 38.85711 -78.06707 4955 ft 141 kts 12°
2026-05-06 21:55 38.86645 -78.06283 4946 ft 146 kts 13°
2026-05-06 21:55 38.87604 -78.05873 4978 ft 145 kts 11°
2026-05-06 21:55 38.88579 -78.05541 4976 ft 143 kts
2026-05-06 21:55 38.89561 -78.05270 4970 ft 144 kts
2026-05-06 21:56 38.90509 -78.04982 5022 ft 139 kts
2026-05-06 21:56 38.91449 -78.04623 5022 ft 142 kts 11°
2026-05-06 21:56 38.92379 -78.04178 5041 ft 143 kts 13°
2026-05-06 21:56 38.93350 -78.03853 4954 ft 146 kts 12°
2026-05-06 21:57 38.94304 -78.03362 4878 ft 147 kts 16°
2026-05-06 21:57 38.95236 -78.02843 4890 ft 144 kts 13°
2026-05-06 21:57 38.96145 -78.02353 4940 ft 138 kts 16°
2026-05-06 21:57 38.97071 -78.01905 4886 ft 146 kts 13°
2026-05-06 21:58 38.98017 -78.01464 4834 ft 136 kts 360°
2026-05-06 21:58 38.98921 -78.01191 4818 ft 139 kts 10°
2026-05-06 21:58 38.99810 -78.00688 4839 ft 139 kts 11°
2026-05-06 21:58 39.00658 -78.00174 4972 ft 139 kts 36°
2026-05-06 21:59 39.01209 -77.99120 5009 ft 145 kts 64°
2026-05-06 21:59 39.01558 -77.97897 4937 ft 152 kts 74°
2026-05-06 21:59 39.01960 -77.96630 4894 ft 150 kts 55°
2026-05-06 21:59 39.02498 -77.95513 4980 ft 144 kts 57°
2026-05-06 22:00 39.03062 -77.94443 5004 ft 145 kts 54°
2026-05-06 22:00 39.03588 -77.93349 5061 ft 146 kts 59°
2026-05-06 22:00 39.03819 -77.92070 5010 ft 148 kts 102°
2026-05-06 22:00 39.03320 -77.91092 4988 ft 124 kts 170°
2026-05-06 22:01 39.02582 -77.91152 4980 ft 99 kts 207°
2026-05-06 22:01 39.01954 -77.91481 4903 ft 102 kts 210°
2026-05-06 22:01 39.01327 -77.91934 4820 ft 104 kts 234°
2026-05-06 22:01 39.01029 -77.92736 4837 ft 94 kts 254°
2026-05-06 22:02 39.00812 -77.93506 4923 ft 91 kts 244°
2026-05-06 22:02 39.00523 -77.94217 4962 ft 92 kts 247°
2026-05-06 22:02 39.00314 -77.95016 4984 ft 95 kts 250°
2026-05-06 22:02 39.00069 -77.95825 5001 ft 97 kts 250°
2026-05-06 22:03 38.99832 -77.96633 4993 ft 95 kts 249°
2026-05-06 22:03 38.99578 -77.97352 4961 ft 90 kts 244°
2026-05-06 22:03 38.99332 -77.98113 4948 ft 90 kts 248°
2026-05-06 22:03 38.99062 -77.98834 4816 ft 93 kts 237°
2026-05-06 22:04 38.98773 -77.99589 4676 ft 94 kts 247°
2026-05-06 22:04 38.98520 -78.00377 4540 ft 97 kts 252°
2026-05-06 22:04 38.98311 -78.01228 4429 ft 102 kts 252°
2026-05-06 22:04 38.98134 -78.02098 4227 ft 104 kts 264°
2026-05-06 22:05 38.98078 -78.03031 4079 ft 104 kts 259°
2026-05-06 22:05 38.97839 -78.03905 3977 ft 104 kts 246°
2026-05-06 22:05 38.97636 -78.04323 3990 ft 100 kts 238°
2026-05-06 22:07 38.97565 -78.04447 3998 ft 97 kts 238°
2026-05-06 22:07 38.97134 -78.05093 3946 ft 95 kts 232°
2026-05-06 22:07 38.96805 -78.05735 3998 ft 83 kts 250°
2026-05-06 22:07 38.96572 -78.06454 3854 ft 93 kts 250°
2026-05-06 22:08 38.96356 -78.07243 3819 ft 94 kts 255°
2026-05-06 22:08 38.96214 -78.08042 3847 ft 90 kts 253°
2026-05-06 22:08 38.96012 -78.08811 3838 ft 93 kts 255°
2026-05-06 22:08 38.95835 -78.09619 3867 ft 92 kts 259°
2026-05-06 22:09 38.95719 -78.10414 3857 ft 92 kts 255°
2026-05-06 22:09 38.95528 -78.11218 3813 ft 97 kts 253°
2026-05-06 22:09 38.95328 -78.12061 3744 ft 100 kts 255°
2026-05-06 22:09 38.95171 -78.12933 3687 ft 101 kts 256°
2026-05-06 22:10 38.95005 -78.13805 3732 ft 101 kts 256°
2026-05-06 22:10 38.94757 -78.14674 3718 ft 109 kts 248°
2026-05-06 22:10 38.94423 -78.15572 3612 ft 111 kts 244°
2026-05-06 22:10 38.94040 -78.16402 3559 ft 107 kts 234°
2026-05-06 22:11 38.93578 -78.17075 3433 ft 96 kts 238°
2026-05-06 22:11 38.93182 -78.17808 3139 ft 105 kts 239°
2026-05-06 22:11 38.92711 -78.18581 2900 ft 111 kts 234°
2026-05-06 22:11 38.92173 -78.19290 2708 ft 110 kts 243°
2026-05-06 22:12 38.91945 -78.20182 2403 ft 109 kts 270°
2026-05-06 22:12 38.91920 -78.21125 1983 ft 98 kts 275°
2026-05-06 22:12 38.91899 -78.22002 1606 ft 100 kts 267°
2026-05-06 22:12 38.91866 -78.22936 1318 ft 106 kts 269°
2026-05-06 22:13 38.91828 -78.23869 1062 ft 105 kts 265°
2026-05-06 22:13 38.91778 -78.24736 750 ft 92 kts 268°
2026-05-06 22:13 38.91747 -78.25365 699 ft 32 kts 267°
2026-05-06 22:13 38.91769 -78.25411 698 ft 7 kts
2026-05-06 22:14 38.91813 -78.25378 698 ft 9 kts 82°
2026-05-06 22:14 38.91816 -78.25304 697 ft 8 kts 88°
2026-05-06 22:14 38.91819 -78.25218 699 ft 10 kts 86°
2026-05-06 22:14 38.91824 -78.25132 704 ft 10 kts 83°
2026-05-06 22:15 38.91831 -78.25020 697 ft 15 kts 86°
2026-05-06 22:15 38.91836 -78.24879 707 ft 14 kts 91°
2026-05-06 22:15 38.91831 -78.24828 700 ft 2 kts 134°
2026-05-06 22:15 38.91817 -78.24818 708 ft 0 kts 176°
2026-05-06 22:16 38.91794 -78.24818 698 ft 10 kts 187°
2026-05-06 22:16 38.91768 -78.24939 707 ft 35 kts 267°
2026-05-06 22:17 38.91749 -78.25480 718 ft 78 kts 270°
2026-05-06 22:17 38.91698 -78.26215 850 ft 89 kts 268°
2026-05-06 22:17 38.91613 -78.27044 1069 ft 91 kts 269°
2026-05-06 22:17 38.91553 -78.27799 1418 ft 83 kts 268°
2026-05-06 22:18 38.91629 -78.28563 1574 ft 94 kts 308°
2026-05-06 22:18 38.92213 -78.28918 1781 ft 99 kts 352°
2026-05-06 22:18 38.92856 -78.28563 1877 ft 110 kts 50°
2026-05-06 22:18 38.93172 -78.27635 1899 ft 116 kts 65°
2026-05-06 22:19 38.93502 -78.26677 1872 ft 120 kts 69°
2026-05-06 22:19 38.93598 -78.25661 2035 ft 111 kts 96°
2026-05-06 22:19 38.93497 -78.24648 2048 ft 118 kts 92°
2026-05-06 22:19 38.93266 -78.23737 1883 ft 105 kts 134°
2026-05-06 22:20 38.92668 -78.23403 1688 ft 95 kts 181°
2026-05-06 22:20 38.92039 -78.23600 1398 ft 96 kts 213°
2026-05-06 22:20 38.91734 -78.24309 1025 ft 84 kts 290°
2026-05-06 22:20 38.91767 -78.24999 706 ft 69 kts 265°
2026-05-06 22:21 38.91749 -78.25373 702 ft 49 kts 267°
2026-05-06 22:21 38.91726 -78.25976 764 ft 76 kts 270°
2026-05-06 22:21 38.91662 -78.26683 952 ft 81 kts 266°
2026-05-06 22:21 38.91623 -78.27432 1186 ft 90 kts 270°
2026-05-06 22:22 38.91623 -78.28254 1424 ft 91 kts 279°
2026-05-06 22:22 38.91756 -78.29012 1693 ft 87 kts 312°
2026-05-06 22:22 38.92354 -78.29246 1856 ft 93 kts 354°
2026-05-06 22:22 38.92973 -78.29182 1948 ft 95 kts 14°
2026-05-06 22:23 38.93514 -78.28605 2001 ft 104 kts 49°
2026-05-06 22:23 38.93691 -78.27662 1982 ft 117 kts 96°
2026-05-06 22:23 38.93633 -78.26601 1999 ft 119 kts 87°
2026-05-06 22:23 38.93660 -78.25549 1990 ft 121 kts 83°
2026-05-06 22:24 38.93640 -78.24455 1992 ft 123 kts 94°
2026-05-06 22:24 38.93568 -78.23394 2009 ft 111 kts 95°
2026-05-06 22:24 38.93429 -78.22461 1785 ft 107 kts 120°
2026-05-06 22:24 38.92873 -78.21950 1735 ft 96 kts 167°
2026-05-06 22:25 38.92206 -78.21904 1594 ft 99 kts 188°
2026-05-06 22:25 38.91719 -78.22447 1501 ft 97 kts 264°
2026-05-06 22:25 38.91794 -78.23316 1316 ft 103 kts 284°
2026-05-06 22:25 38.91805 -78.24240 962 ft 101 kts 270°
2026-05-06 22:26 38.91758 -78.25080 704 ft 80 kts 269°
2026-05-06 22:26 38.91746 -78.25444 702 ft 6 kts
2026-05-06 22:26 38.91771 -78.25410 699 ft 7 kts
2026-05-06 22:26 38.91790 -78.25408 700 ft 0 kts
2026-05-06 22:28 38.91802 -78.25404 698 ft 7 kts 34°
2026-05-06 22:28 38.91818 -78.25296 700 ft 18 kts 87°
2026-05-06 22:29 38.91826 -78.25108 705 ft 24 kts 86°
2026-05-06 22:29 38.91833 -78.24911 706 ft 19 kts 86°
2026-05-06 22:29 38.91824 -78.24823 708 ft 0 kts 182°
2026-05-06 22:29 38.91805 -78.24821 708 ft 6 kts 178°
2026-05-06 22:30 38.91770 -78.24876 707 ft 18 kts 268°
2026-05-06 22:30 38.91756 -78.25302 704 ft 74 kts 270°
2026-05-06 22:30 38.91685 -78.26036 866 ft 85 kts 267°
2026-05-06 22:30 38.91593 -78.26775 1118 ft 88 kts 261°
2026-05-06 22:31 38.91387 -78.27542 1355 ft 95 kts 242°
2026-05-06 22:31 38.90888 -78.28109 1589 ft 97 kts 203°
2026-05-06 22:31 38.90223 -78.28128 1848 ft 102 kts 165°
2026-05-06 22:31 38.89607 -78.27693 2144 ft 99 kts 150°
2026-05-06 22:32 38.89052 -78.27123 2381 ft 108 kts 146°
2026-05-06 22:32 38.88479 -78.26450 2566 ft 118 kts 139°
2026-05-06 22:32 38.87928 -78.25717 2896 ft 107 kts 146°
2026-05-06 22:32 38.87394 -78.25020 3188 ft 105 kts 140°
2026-05-06 22:33 38.86889 -78.24381 3446 ft 109 kts 128°
2026-05-06 22:33 38.86764 -78.23383 3532 ft 128 kts 74°
2026-05-06 22:33 38.87243 -78.22409 3692 ft 124 kts 32°
2026-05-06 22:33 38.88000 -78.21986 3882 ft 122 kts
2026-05-06 22:34 38.88827 -78.21877 4105 ft 115 kts 349°
2026-05-06 22:34 38.89623 -78.21963 4213 ft 115 kts 330°